"Pseudo-MPEC" for A11yZCg

Created 2026 Mar 11 11:35:03 UT using Find_Orb

Click here for an explanation of pseudo-MPECs

 
 Astrometry: 
     A11yZCg*0C2026 03 09.49856012 22 11.585-32 49 59.95   ~39IZ 16.98oVNEOCPT05
     A11yZCg 0C2026 03 09.50223512 22 06.929-32 41 42.47   ~39IZ 17.06oVNEOCPT05
     A11yZCg 0C2026 03 09.50775412 21 59.880-32 29 15.43   ~39IZ 17.56oVNEOCPT05
     A11yZCg 0C2026 03 09.53516012 21 25.858-31 27 12.74   ~39IZ 17.34oVNEOCPT05
     A11yZCg 0C2026 03 09.57300912 20 41.311-30 00 39.28   ~39IZ 17.40oVNEOCPT05
     A11yZCg 0B2026 03 09.97011912 17 56.902-15 03 35.17   ~3A8Z 16.76GXNEOCPL34
     A11yZCg 0B2026 03 09.98761612 17 40.399-14 24 48.38   ~3A8Z 17.40GXNEOCPL34
     A11yZCg 0B2026 03 10.11353112 15 48.463-09 49 36.88   ~3A8Z 16.06GXNEOCPL34
     A11yZCg 0B2026 03 10.30045612 14 39.643-03 01 18.93   ~3A8o 16.5 GXNEOCPW89
     A11yZCg 0B2026 03 10.30081212 14 39.340-03 00 35.72   ~3A8o 16.7 GXNEOCPW89
     A11yZCg 0B2026 03 10.30117012 14 39.049-02 59 52.87   ~3A8o 16.4 GXNEOCPW89
     A11yZCg KB2026 03 10.32862312 14 45.816-02 27 54.90   ~3A8K 17.4 GXNEOCP734
     A11yZCg KB2026 03 10.32920112 14 45.372-02 26 46.90   ~3A8K 17.5 GXNEOCP734
     A11yZCg KB2026 03 10.32978012 14 44.890-02 25 38.93   ~3A8K 17.1 GXNEOCP734
     A11yZCg KB2026 03 10.52210712 14 21.832+03 35 28.78   ~3AD5 17.4 GXNEOCPQ06
     A11yZCg KB2026 03 10.52427012 14 20.374+03 39 21.52   ~3AD5 17.3 GXNEOCPQ06
     A11yZCg KB2026 03 10.52643212 14 18.968+03 43 11.42   ~3AD5 17.4 GXNEOCPQ06
     A11yZCg KB2026 03 10.65805412 13 04.476+07 27 36.76   ~3B7o 17.3 GVNEOCPP13
     A11yZCg KB2026 03 10.66565012 12 59.170+07 40 07.75   ~3B7o 17.2 GVNEOCPP13
     A11yZCg KB2026 03 10.67320412 12 53.858+07 52 31.01   ~3B7o 17.4 GVNEOCPP13
     A11yZCg KB2026 03 10.68076612 12 48.511+08 04 51.64   ~3B7o 17.4 GVNEOCPP13
     A11yZCg KB2026 03 10.69638512 12 16.961+08 31 26.72   ~3AHZ 17.3 GWNEOCP900
     A11yZCg KB2026 03 10.70027212 12 14.131+08 37 41.05   ~3AHZ 17.3 GWNEOCP900
     A11yZCg KB2026 03 10.70415812 12 11.321+08 43 54.55   ~3AHZ 17.5 GWNEOCP900
     A11yZCg KB2026 03 10.78004912 12 39.919+10 37 40.37   ~3AJo 17.3 GXNEOCPL99
     A11yZCg KB2026 03 10.78387712 12 38.086+10 43 34.61   ~3AJo 17.4 GXNEOCPL99
     A11yZCg KC2026 03 10.78641412 12 39.710+10 47 42.68   ~3AJZ 17.6 GXNEOCPL18
     A11yZCg KB2026 03 10.78767912 12 36.214+10 49 23.30   ~3AJo 17.3 GXNEOCPL99
     A11yZCg KC2026 03 10.78928812 12 38.258+10 52 06.85   ~3AJZ 17.5 GXNEOCPL18
     A11yZCg KC2026 03 10.79214212 12 36.907+10 56 29.36   ~3AJZ 17.7 GXNEOCPL18
     A11yZCg 1C2026 03 10.80837 12 12 24.97 +11 22 23.6    ~3AK5 17.5 GXNEOCPC40
     A11yZCg 1C2026 03 10.81041 12 12 23.86 +11 25 28.2    ~3AK5 17.0 GXNEOCPC40
     A11yZCg KB2026 03 10.81119 12 12 30.10 +11 26 02.4    ~3AK5 17.2 GXNEOCPM45
     A11yZCg 1C2026 03 10.81239 12 12 22.70 +11 28 28.8    ~3AK5 17.3 GXNEOCPC40
     A11yZCg KB2026 03 10.81338 12 12 28.96 +11 29 20.5    ~3AK5 17.0 GXNEOCPM45
     A11yZCg KB2026 03 10.81574 12 12 27.70 +11 32 54.2    ~3AK5 17.5 GXNEOCPM45
     A11yZCg 0B2026 03 10.82657612 12 23.409+11 47 38.99   ~3AKZ 17.1 GWNEOCPG34
     A11yZCg 0B2026 03 10.82914812 12 22.185+11 51 29.61   ~3AKZ 16.8 GWNEOCPG34
     A11yZCg 0B2026 03 10.83174112 12 20.915+11 55 22.64   ~3AKZ 17.3 GWNEOCPG34
     A11yZCg 0B2026 03 10.83432612 12 19.666+11 59 13.25   ~3AKZ 17.2 GWNEOCPG34
     A11yZCg KB2026 03 10.83922 12 12 15.29 +12 08 09.3    ~3AM5 17.6 GVNEOCPL16
     A11yZCg KC2026 03 10.84053 12 12 14.89 +12 09 38.3    ~3AKZ 17.1 GXNEOCPL04
     A11yZCg KB2026 03 10.84270 12 12 13.37 +12 13 18.4    ~3AM5 17.9 GVNEOCPL16
     A11yZCg KC2026 03 10.84421 12 12 12.92 +12 15 05.7    ~3AKZ 17.3 GXNEOCPL04
     A11yZCg KB2026 03 10.84617 12 12 11.36 +12 18 27.0    ~3AM5 17.3 GVNEOCPL16
     A11yZCg  C2026 03 10.86472 12 12 01.04 +12 44 50.4    ~3B05 17.3 RVNEOCPM32
     A11yZCg KB2026 03 10.86855312 11 57.250+12 50 57.88   ~3ALK 17.0 GXNEOCPM35
     A11yZCg  C2026 03 10.87023 12 11 57.95 +12 52 51.9    ~3B05 17.2 RVNEOCPM32
     A11yZCg KB2026 03 10.87137712 11 55.644+12 55 03.58   ~3ALK 17.2 GXNEOCPM35
     A11yZCg KB2026 03 10.87378512 11 54.233+12 58 33.64   ~3ALK 17.2 GXNEOCPM35
     A11yZCg  C2026 03 10.87566 12 11 54.85 +13 00 44.4    ~3B05 17.2 RVNEOCPM32
     A11yZCg KC2026 03 10.88546 12 11 58.92 +13 16 31.8    ~3ALZ 17.3 VZNEOCPC82
     A11yZCg KC2026 03 10.89062 12 11 55.90 +13 23 57.4    ~3ALZ 18.0 VZNEOCPC82
     A11yZCg KB2026 03 10.89075512 12 03.35 +13 22 49.7    ~3AM5 17.5 GXNEOCP958
     A11yZCg KB2026 03 10.89486812 12 01.15 +13 28 43.4    ~3AM5 18.0 GXNEOCP958
     A11yZCg KB2026 03 10.89536212 11 59.88 +13 29 16.2    ~3ALo 17.2 GVNEOCPI93
     A11yZCg KB2026 03 10.89710012 11 58.96 +13 31 45.4    ~3ALo 17.2 GVNEOCPI93
     A11yZCg KB2026 03 10.89881912 11 58.06 +13 34 13.1    ~3ALo 17.3 GVNEOCPI93
     A11yZCg KB2026 03 10.89895712 11 59.02 +13 34 35.6    ~3AM5 18.0 GXNEOCP958
     A11yZCg KB2026 03 10.89986412 11 48.33 +13 35 51.4    ~3AM5       XNEOCP595
     A11yZCg KB2026 03 10.90049512 11 47.98 +13 36 45.7    ~3AM5 17.4 GXNEOCP595
     A11yZCg KB2026 03 10.90109912 11 47.61 +13 37 36.6    ~3AM5 17.1 GXNEOCP595
     A11yZCg 0C2026 03 11.07154512 11 09.000+17 25 49.49   ~3B25 18.0 GWNEOCPW27
     A11yZCg 0C2026 03 11.07270612 11 08.492+17 27 18.82   ~3B25 17.5 GWNEOCPW27
     A11yZCg 0C2026 03 11.07386712 11 07.941+17 28 47.93   ~3B25 17.9 GWNEOCPW27
     A11yZCg 0C2026 03 11.07503112 11 07.394+17 30 17.31   ~3B25 17.6 GWNEOCPW27
     A11yZCg KC2026 03 11.19407512 10 15.19 +19 56 38.2    ~3B55 18.5 GVNEOCPH21
     A11yZCg KC2026 03 11.19513912 10 14.59 +19 57 53.5    ~3B55 18.4 GVNEOCPH21
     A11yZCg KC2026 03 11.19620312 10 13.98 +19 59 08.6    ~3B55 17.7 GVNEOCPH21
     A11yZCg KC2026 03 11.19730212 10 13.35 +20 00 26.3    ~3B55 18.0 GVNEOCPH21

Station data:
(595) Farra d'Isonzo  (N45.915731 E13.525780)  Italy.  Observers S. Aschi, E.
   Pettarin, G. Panterotto. Measurers S. Aschi, E. Pettarin. 0.40-m f/5.15
   reflector + CCD.
(734) Farpoint Observatory, Eskridge  (N38.890239 W96.002420)  US/Kansas.
   Observer G. Hug. 0.69-m reflector + CCD.
(900) Moriyama  (N35.049753 E135.989940)  Japan.  Observer Y. Ikari. 0.26-m
   f/7.0 reflector + CCD.
(958) Observatoire de Dax  (N43.693381 W1.030530)  France.  Observer P.
   Dupouy. 0.32-m Schmidt-Cassegrain.
(C40) Kuban State University Astrophysical Observatory  (N45.019544
   E39.030800)  Russia.  Observer A. Ivanov. 0.51-m f/8 reflector + CCD.
(C82) Osservatorio Astronomico Nastro Verde, Sorrento  (N40.618774
   E14.357590)  Italy.  Observer N. Ruocco. 0.35-m f/6.3 Schmidt-Cassegrain +
   CCD.
(G34) Oberfrauendorf  (N50.860002 E13.701500)  Germany.  Observer T. Felber.
   0.35-m f/6.3 Schmidt-Cassegrain + CCD.
(H21) Astronomical Research Observatory, Westfield  (N39.483054 W87.968270)
   US/Illinois.  Observer R. Holmes. Measurers S. Foglia, L. Buzzi, T.
   Linder, R. Holmes. 0.40-m f/5.32 astrograph + CCD.
(I93) St Pardon de Conques  (N44.558670 W0.202960)  France.  Observers F.
   Losse, W. D'Anna. Measurer F. Losse. 0.40-m f/3.7 reflector + CCD.
(L04) ROASTERR-1 Observatory, Cluj-Napoca  (N46.820952 E23.596400)  Romania.
   Observer L. Hudin. 0.1-m f/9 refractor + CCD.
(L16) Stardreams Observatory, V\v{a}lenii de Munte  (N45.203693 E26.045610)
   Romania.
(L18) QOS Observatory, Zalistci  (N48.848292 E26.718280)  Ukraine.  Observers
   O. V. Kravchenko, Y. V. Tanasiychuk. Measurer A. M. Kozhukhov. 0.50-m
   f/3.8 reflector + CCD.
(L34) Galhassin Robotic Telescope, Isnello  (N37.939358 E14.020610)  Italy.
   Observer A. Nastasi. 0.40-m reflector + CCD.
(L99) Novosilky  (N50.607686 E30.602810)  Ukraine.  Observer A. M. Kozhukhov.
   0.30-m f/1.0 astrograph + CMO.
(M32) Sunny Transcarpathian, Mukachevo  (N48.379029 E22.709190).  Observer O.
   Briukhovetskyi. 0.35-m f/2.0 reflector + CCD.
(M35) PS Observatory, Parjol  (N46.575378 E26.616690).  Observer R. Anghel.
   Measurers R. Anghel, A. Anghel. 0.2-m f/12 Cassegrain + CCD.
(M45) Starhopper Observatory, Sfantu Gheorghe  (N45.865494 E25.768890)
   Romania.  Observer F. Ursache. 0.41-m f/7.5 reflector + CMO.
(P13) Baihuashan Observatory, Beijing  (N39.837554 E115.573330)  China.
   Observers Z. Wang, B. Liu. Measurer Z. Wang. 0.28-m f/2.2 reflector + CMO.
(Q06) Tarui Observatory, Tarui  (N35.394791 E136.495470)  Japan.  Observer H.
   Watanabe. 0.35-m f/1.9 Schmidt-Cassegrain + CMO.
(T05) ATLAS-HKO, Haleakala  (N20.707551 W156.257010)  US/Hawaii.  Observers
   L. Denneau, R. Siverd, J. Tonry, H. Weiland. Measurers L. Denneau, N.
   Erasmus, A. Fitzsimmons, J. Robinson, R. Siverd, J. Tonry, H. Weiland.
   0.5-m f/2.0 Schmidt + CCD.
(W27) RCNS, New Milford  (N41.525582 W73.426170)  US/Connecticut.
(W89) Cerro Tololo-LCO Aqawan A {#}1  (S30.167661 W70.804670)  Chile.  Observer
   A. Hale. Measurer R. Miles. 0.40-m f/8 Schmidt-Cassegrain + CCD.

Orbital elements:  A11yZCg
   Perihelion 2025 Dec 2.234046 +/- 0.00559 TT =  5:37:01.5 (JD 2461011.734046)
Epoch 2026 Mar 11.0 TT = JDT 2461110.5   Earth MOID: 0.0062   Ve: 0.0757
M 108.041679119 +/- 0.006           (J2000 ecliptic)             AutoNEOCP
n   1.093916222 +/- 3.97e-6         Peri.  235.839791 +/- 0.0028
a   0.932853275 +/- 2.26e-6         Node   169.513697 +/- 0.000025
e   0.16572277 +/- 2.86e-5          Incl.   13.289960 +/- 0.0031
P   0.901/329.087d         H 27.15  G  0.15   U  4.4
q 0.778258237 +/- 2.62e-5    Q 1.087448312 +/- 2.75e-5
From 70 observations 2026 Mar. 9-11 (40.8 hr); mean residual 0".52
Residuals in arcseconds: 
260309 T05  .10+  1.8-    260310 L99  .51+  1.3-    260310 M35  .33-  .33+    
260309 T05  .37+  .14+    260310 L99  .79+  .00     260310 M35  .23-  .79+    
260309 T05  .34-  1.7+    260310 L18  .49+  .16-    260310 M32  .08-  .09-    
260309 T05  .03-  .58+    260310 L99  .61+  1.0-    260310 C82  .07-  .75+    
260309 T05  .24-  1.4-    260310 L18  .58-  .10-    260310 C82  .27+  .86+    
260309 L34  .31+  .56-    260310 L18  .14-  .61+    260310 958  .72+  .10+    
